sat.trackr.live / text

‹ back to catalog

ONEWEB-0654

NORAD 55816 · 2023-029W

PAYLOAD ACTIVE UNKNOWN

§ Identity

Operator
Country
UK
Launch date
2023-03-09
Launch site
AFETR
Launch vehicle
Mass (kg)
RCS (m²)

Purposes: comms

External: N2YO · Heavens-Above · Gunter

§ Orbital elements

Epoch: 2026-05-25T03:52:15.520800Z

Period
109.55 min
Inclination
87.8941°
Eccentricity
0.0002189
Mean motion
13.14502106 rev/d
Perigee alt
1,204.1 km
Apogee alt
1,207.5 km
Semi-major
7,583.9 km
B*
4.1244e-4
RAAN
294.2972°
Arg perigee
99.2138°
Mean anomaly
260.9240°
Rev number
15,639

§ Raw data

ONEWEB-06541 55816U 23029W   26145.16129075  .00000166  00000+0  41244-3 0  99902 55816  87.8941 294.2972 0002189  99.2138 260.9240 13.14502106156391

JSON: /api/v1/satellites/55816 · /tle

For live sub-satellite position, see the globe view (requires WebGL).

§ Visibility from observer

Set your observer location to see the next 7 days of passes ≥ 10°. The values pass through the URL so the page stays shareable.

No JS? Fill the form by hand. The geolocation button needs JavaScript.